{"data":{"norad_id":64248,"epoch":"2026-05-25T05:21:46.423872Z","epoch_age_seconds":49527,"freshness":"FRESH","line1":"1 64248U 25119R   26145.22345398  .00014249  00000+0  52613-3 0  9995","line2":"2 64248  43.0001 234.8713 0000662 286.6803  73.3976 15.27591301 55873","mean_motion":15.27591301,"eccentricity":6.62e-5,"inclination_deg":43.0001,"raan_deg":234.8713,"arg_perigee_deg":286.6803,"mean_anomaly_deg":73.3976,"bstar":0.00052613,"rev_number":5587,"period_min":94.266051335677,"perigee_km":482.56104870934,"apogee_km":483.46946526817,"semimajor_km":6861.1522569888,"source":"CELESTRAK","updated_at":"2026-05-25T13:38:20.354508Z"}}